Content
SEND FEEDBACK

Daily
Averages
Monthly
Summary
Canada

MONTREAL, QUEBEC


Home > North America > Canada > Quebec
Elevation: 118 feet     Latitude: 45 28N     Longitude: 073 45W

WEATHER
 
SELECT A DAY
Number of Records: 195,690;   Date Range: 1/1/95 - 4/17/14
 
SHARE

PRINT THIS DATA

[ ← Previous Day ]
WEATHER ALMANAC - FEBRUARY 12, 2013
[ Next Day → ]
[ °C ]   °F
Weather ElementAverageHighLow
Temperature34.2 °F36 °F (1:00 pm)32 °F (9:00 pm)
Dewpoint23.3 °F31 °F (7:00 am) (7:00 pm)
Humidity81.8 %87 % (1:00 am)65 % (1:00 pm)
Wind Speed16.7 mph24.2 mph (1:00 pm)
Wind Gust31.1 mph (1:00 pm)
Weather ElementAverage
Visibility11.6 mi
Wind DirectionWSW (246.8 °)

Weather ElementTotal
Precipitation---
Heating Degree Days31 (Base 65)
Averaged from 34 records on February 12, 2013
WEATHER CONDITIONS BREAKOUT
WIND DIRECTION BREAKOUT
WEATHER BY HOUR - FEBRUARY 12, 2013
[ °C ]   °F
Local TimeTemperatureDewpointHumidityBarometerVisibilityWind DirectionWind SpeedGust SpeedPrecipitationEventsConditions
1:00 AM33.0 °F30.0 °F85 %29.56 in15.0 miSW (220°)18.4 mphPartly Cloudy
1:00 AM33.8 °F30.2 °F87 %29.56 in15.0 miSW (220°)18.4 mph25.3 mphMostly Cloudy
2:00 AM33.8 °F30.2 °F87 %29.55 in15.0 miSW (220°)18.4 mph24.2 mphMostly Cloudy
2:36 AM33.8 °F0.0 °F15.0 miSW (230°)16.1 mphSnowLight Snow
3:00 AM33.8 °F30.2 °F87 %29.55 in12.0 miSW (220°)16.1 mphSnowLight Snow
4:00 AM33.8 °F30.2 °F87 %29.55 in12.0 miSW (230°)12.7 mph19.6 mphSnowLight Snow
5:00 AM33.8 °F30.2 °F87 %29.55 in8.0 miSW (230°)15.0 mphSnowLight Snow
5:40 AM33.8 °F0.0 °F2.5 miWSW (240°)15.0 mphSnowLight Snow
6:00 AM33.8 °F30.2 °F87 %29.55 in2.5 miWSW (240°)16.1 mphSnowLight Snow
6:29 AM33.8 °F0.0 °F4.0 miWSW (240°)18.4 mphSnowLight Snow
7:00 AM34.0 °F31.0 °F83 %29.55 in6.0 miWSW (240°)16.1 mphSnowLight Snow
7:00 AM33.8 °F30.2 °F87 %29.55 in6.0 miWSW (240°)15.0 mph23.0 mphSnowLight Snow
7:26 AM33.8 °F0.0 °F15.0 miWSW (240°)13.8 mph21.9 mphOvercast
8:00 AM33.8 °F30.2 °F87 %29.57 in15.0 miWSW (240°)17.3 mph23.0 mphOvercast
8:35 AM33.8 °F0.0 °F12.0 miWSW (240°)17.3 mph23.0 mphSnowLight Snow
9:00 AM33.8 °F30.2 °F87 %29.59 in6.0 miWSW (250°)18.4 mph25.3 mphSnowLight Snow
9:46 AM35.6 °F0.0 °F15.0 miWSW (250°)18.4 mphSnowLight Snow
10:00 AM35.6 °F30.2 °F81 %29.61 in15.0 miWSW (250°)20.7 mph26.5 mphSnowLight Snow
11:00 AM35.6 °F30.2 °F81 %29.64 in15.0 miWSW (250°)18.4 mph24.2 mphOvercast
12:00 PM35.6 °F30.2 °F81 %29.65 in15.0 miWest (260°)20.7 mph27.6 mphOvercast
1:00 PM36.0 °F29.0 °F65 %29.68 in15.0 miWest (260°)23.0 mphPartly Cloudy
1:00 PM35.6 °F28.4 °F75 %29.68 in15.0 miWest (270°)24.2 mph31.1 mphOvercast
2:00 PM35.6 °F28.4 °F75 %29.68 in15.0 miWest (270°)16.1 mph28.8 mphOvercast
3:00 PM35.6 °F28.4 °F75 %29.70 in15.0 miWest (260°)17.3 mph29.9 mphOvercast
4:00 PM35.6 °F28.4 °F75 %29.71 in15.0 miWest (260°)16.1 mphOvercast
4:38 PM35.6 °F0.0 °F15.0 miWest (260°)17.3 mphSnowLight Snow Showers
5:00 PM35.6 °F28.4 °F75 %29.72 in12.0 miWest (260°)18.4 mphSnowLight Snow Showers
6:00 PM33.8 °F28.4 °F81 %29.74 in10.0 miWest (260°)16.1 mph21.9 mphSnowLight Snow Showers
7:00 PM34.0 °F28.0 °F70 %29.77 in15.0 miWest (260°)15.0 mphSnowLight Snow Showers
7:00 PM33.8 °F28.4 °F81 %29.77 in15.0 miWest (260°)12.7 mph21.9 mphSnowLight Snow Showers
8:00 PM33.8 °F28.4 °F81 %29.79 in15.0 miWest (260°)12.7 mph18.4 mphSnowLight Snow Showers
9:00 PM32.0 °F28.4 °F87 %29.81 in6.0 miWSW (250°)11.5 mphSnowLight Snow Showers
10:00 PM32.0 °F28.4 °F87 %29.81 in5.0 miWSW (250°)13.8 mphSnowLight Snow Showers
11:00 PM32.0 °F28.4 °F87 %29.81 in4.0 miWest (260°)11.5 mph17.3 mphSnowLight Snow Showers
Hourly data recorded from CYUL, located 0.62 miles away from Montreal, Quebec







STORIES FROM OUR PARTNERS